Location: Gleizolles
(44.4833°N, 6.7667°E)
Time: 05:06:10
(UTC+00:00)

Transit 4A - Pass Details

Date: 28 June 2024
Orbit: 870 x 973 km, 66.8° (Epoch: 14 July)

Event Time Altitude Azimuth Distance (km) Brightness Sun altitude
Rises 02:34:55 0° 332° (NNW) 3,482 11.2 -10.9°
Reaches altitude 10° 02:39:20 10° 3° (N) 2,558 11.0 -10.4°
Maximum altitude 02:41:31 12° 25° (NNE) 2,426 11.4 -10.1°
Drops below altitude 10° 02:43:43 10° 47° (NE) 2,578 11.9 -9.9°
Sets 02:48:11 0° 78° (ENE) 3,542 12.0 -9.3°
